Weather History for Marysville, OH

Change the Weather History Date:

Friday, January 4, 2013

  Actual Average (KDLZ) Record (KDLZ)
Temperature  
Mean Temperature 25 °F -  
Max Temperature 29 °F 37 °F 57 °F (1939)
Min Temperature 21 °F 20 °F -4 °F (1979)
Degree Days  
Heating Degree Days 40    
Moisture  
Dew Point 17 °F    
Average Humidity 68    
Maximum Humidity 76    
Minimum Humidity 60    
Precipitation  
Precipitation 0.00 in - - ()
Sea Level Pressure  
Sea Level Pressure 30.24 in    
Wind  
Wind Speed 14 mph (West)    
Max Wind Speed 20 mph    
Max Gust Speed 29 mph    
Visibility 10 miles    
Events      
Averages and records for this station are not official NWS values.
T = Trace of Precipitation, MM = Missing Value Source: NWS Daily Summary

Daily Weather History Graph

Daily Weather History Graph

Search for Another Location

Airport:

Trip Planner

Search our weather history database for the weather conditions in past years. The results will help you decide how hot, cold, wet, or windy it might be!

Date:

Astronomy

Jan. 04, 2013 Rise Set
Actual Time 7:56 AM EST 5:21 PM EST
Civil Twilight 7:25 AM EST 5:51 PM EST
Nautical Twilight 6:51 AM EST 6:25 PM EST
Astronomical Twilight 6:18 AM EST 6:58 PM EST
Moon No Moon Rise 11:37 AM EST (1/4)
Length of Visible Light 10h 25m
Length of Day
9h 24m
Waning Gibbous, 55% of the Moon is Illuminated
Jan 4
Waning Gibbous
Jan 4
Last Quarter
Jan 11
New
Jan 18
First Quarter
Jan 26
Full

Hourly Weather History & Observations

Time (EST) Temp. Windchill Dew Point Humidity Pressure Visibility Wind Dir Wind Speed Gust Speed Precip Events Conditions
12:14 AM 28.0 °F 17.0 °F 20.1 °F 72% 30.24 in 10.0 mi West 13.8 mph 18.4 mph N/A   Mostly Cloudy
12:34 AM 27.9 °F 16.3 °F 19.6 °F 71% 30.23 in 10.0 mi WNW 15.0 mph - N/A   Overcast
12:54 AM 27.9 °F 18.4 °F 19.9 °F 72% 30.23 in 10.0 mi West 10.4 mph 16.1 mph N/A   Overcast
1:14 AM 27.1 °F 15.4 °F 18.0 °F 68% 30.23 in 10.0 mi West 15.0 mph 21.9 mph N/A   Overcast
1:34 AM 27.3 °F 15.6 °F 18.1 °F 68% 30.22 in 10.0 mi WNW 15.0 mph - N/A   Overcast
1:54 AM 27.3 °F 15.2 °F 18.0 °F 68% 30.22 in 10.0 mi West 16.1 mph 21.9 mph N/A   Overcast
2:14 AM 27.5 °F 15.9 °F 17.6 °F 66% 30.23 in 10.0 mi WNW 15.0 mph - N/A   Overcast
2:34 AM 27.3 °F 16.6 °F 18.0 °F 68% 30.23 in 10.0 mi West 12.7 mph - N/A   Overcast
2:54 AM 27.1 °F 16.9 °F 18.5 °F 70% 30.24 in 10.0 mi West 11.5 mph - N/A   Overcast
3:14 AM 27.1 °F 15.9 °F 18.7 °F 70% 30.25 in 10.0 mi West 13.8 mph 17.3 mph N/A   Overcast
3:34 AM 26.8 °F 16.5 °F 18.9 °F 72% 30.24 in 10.0 mi West 11.5 mph - N/A   Overcast
3:54 AM 26.6 °F 16.8 °F 18.1 °F 70% 30.24 in 10.0 mi WNW 10.4 mph - N/A   Overcast
4:14 AM 26.6 °F 16.2 °F 18.1 °F 70% 30.24 in 10.0 mi WNW 11.5 mph - N/A   Overcast
4:34 AM 26.4 °F 16.6 °F 18.1 °F 71% 30.23 in 10.0 mi West 10.4 mph - N/A   Overcast
4:54 AM 26.2 °F 15.8 °F 18.3 °F 72% 30.23 in 10.0 mi West 11.5 mph - N/A   Overcast
5:14 AM 26.2 °F 16.4 °F 18.5 °F 73% 30.23 in 10.0 mi West 10.4 mph - N/A   Overcast
5:34 AM 26.2 °F 17.8 °F 18.9 °F 74% 30.22 in 10.0 mi West 8.1 mph - N/A   Overcast
5:54 AM 26.2 °F 15.2 °F 18.7 °F 73% 30.22 in 10.0 mi West 12.7 mph 18.4 mph N/A   Overcast
6:14 AM 25.7 °F 13.5 °F 18.1 °F 73% 30.22 in 10.0 mi West 15.0 mph 18.4 mph N/A   Overcast
6:34 AM 23.9 °F 12.3 °F 16.2 °F 72% 30.23 in 10.0 mi West 12.7 mph - N/A   Scattered Clouds
7:14 AM 22.6 °F 11.9 °F 15.4 °F 74% 30.24 in 10.0 mi West 10.4 mph - N/A   Clear
7:34 AM 22.1 °F 10.6 °F 15.4 °F 76% 30.24 in 10.0 mi West 11.5 mph 17.3 mph N/A   Clear
7:54 AM 21.9 °F 10.4 °F 14.7 °F 74% 30.25 in 10.0 mi West 11.5 mph - N/A   Clear
8:13 AM 21.2 °F 10.9 °F 14.0 °F 74% 30.25 in 10.0 mi West 9.2 mph - N/A   Clear
8:34 AM 21.2 °F 11.7 °F 14.4 °F 75% 30.26 in 10.0 mi West 8.1 mph - N/A   Clear
8:54 AM 21.6 °F 9.3 °F 14.0 °F 73% 30.26 in 10.0 mi West 12.7 mph 17.3 mph N/A   Clear
9:13 AM 21.9 °F 10.4 °F 14.0 °F 72% 30.26 in 10.0 mi West 11.5 mph - N/A   Clear
9:34 AM 22.6 °F 10.7 °F 14.0 °F 69% 30.26 in 10.0 mi West 12.7 mph - N/A   Clear
9:54 AM 23.2 °F 10.3 °F 15.1 °F 71% 30.27 in 10.0 mi West 15.0 mph 19.6 mph N/A   Clear
10:14 AM 23.7 °F 11.5 °F 15.8 °F 72% 30.28 in 10.0 mi West 13.8 mph - N/A   Clear
10:34 AM 24.3 °F 10.0 °F 16.5 °F 72% 30.28 in 10.0 mi WSW 19.6 mph - N/A   Clear
10:54 AM 24.8 °F 12.4 °F 16.7 °F 71% 30.28 in 10.0 mi West 15.0 mph 27.6 mph N/A   Clear
11:14 AM 25.5 °F 11.6 °F 16.9 °F 70% 30.28 in 10.0 mi WSW 19.6 mph - N/A   Clear
11:34 AM 26.4 °F 13.2 °F 17.1 °F 68% 30.27 in 10.0 mi WSW 18.4 mph 24.2 mph N/A   Clear
11:54 AM 27.0 °F 14.3 °F 17.2 °F 67% 30.25 in 10.0 mi West 17.3 mph 25.3 mph N/A   Clear
12:14 PM 27.5 °F 15.9 °F 17.2 °F 65% 30.25 in 10.0 mi West 15.0 mph - N/A   Clear
12:34 PM 28.2 °F 16.3 °F 17.4 °F 64% 30.25 in 10.0 mi West 16.1 mph 19.6 mph N/A   Clear
12:54 PM 28.6 °F 17.2 °F 17.4 °F 63% 30.24 in 10.0 mi West 15.0 mph 21.9 mph N/A   Clear
1:14 PM 28.9 °F 16.9 °F 17.6 °F 63% 30.24 in 10.0 mi West 17.3 mph 21.9 mph N/A   Clear
1:34 PM 29.3 °F 16.6 °F 16.9 °F 60% 30.23 in 10.0 mi West 19.6 mph 24.2 mph N/A   Clear
1:54 PM 29.5 °F 18.4 °F 18.0 °F 62% 30.22 in 10.0 mi West 15.0 mph 21.9 mph N/A   Clear
2:14 PM 29.1 °F 16.7 °F 17.2 °F 61% 30.22 in 10.0 mi West 18.4 mph 28.8 mph N/A   Clear
2:34 PM 29.3 °F 17.3 °F 17.6 °F 62% 30.22 in 10.0 mi West 17.3 mph 25.3 mph N/A   Clear
2:54 PM 28.9 °F 16.1 °F 17.4 °F 62% 30.22 in 10.0 mi West 19.6 mph 28.8 mph N/A   Clear
3:14 PM 28.8 °F 16.2 °F 17.4 °F 63% 30.22 in 10.0 mi West 18.4 mph 25.3 mph N/A   Clear
3:34 PM 28.4 °F 17.0 °F 17.4 °F 63% 30.23 in 10.0 mi West 15.0 mph 19.6 mph N/A   Clear
3:54 PM 28.2 °F 16.8 °F 17.4 °F 64% 30.23 in 10.0 mi West 15.0 mph - N/A   Clear
4:14 PM 28.0 °F 17.5 °F 17.2 °F 64% 30.24 in 10.0 mi West 12.7 mph - N/A   Clear
4:34 PM 27.5 °F 15.4 °F 16.7 °F 64% 30.24 in 10.0 mi West 16.1 mph - N/A   Clear
4:54 PM 26.8 °F 14.9 °F 16.5 °F 65% 30.24 in 10.0 mi WSW 15.0 mph - N/A   Clear
5:14 PM 25.9 °F 12.5 °F 15.8 °F 66% 30.24 in 10.0 mi WSW 18.4 mph - N/A   Clear
5:33 PM 25.3 °F 14.1 °F 15.6 °F 67% 30.24 in 10.0 mi WSW 12.7 mph - N/A   Clear
5:54 PM 25.2 °F 13.3 °F 15.6 °F 67% 30.23 in 10.0 mi WSW 13.8 mph - N/A   Clear
6:14 PM 24.8 °F 12.4 °F 15.6 °F 68% 30.23 in 10.0 mi WSW 15.0 mph - N/A   Clear
6:34 PM 24.6 °F 11.3 °F 15.4 °F 68% 30.24 in 10.0 mi WSW 17.3 mph - N/A   Clear
6:54 PM 24.8 °F 11.5 °F 15.6 °F 68% 30.24 in 10.0 mi WSW 17.3 mph - N/A   Clear
7:14 PM 25.0 °F 11.7 °F 15.8 °F 68% 30.24 in 10.0 mi WSW 17.3 mph 24.2 mph N/A   Clear
7:34 PM 24.8 °F 11.5 °F 15.6 °F 68% 30.24 in 10.0 mi West 17.3 mph 20.7 mph N/A   Clear
7:54 PM 24.8 °F 12.9 °F 15.6 °F 68% 30.25 in 10.0 mi West 13.8 mph - N/A   Clear
8:14 PM 25.3 °F 13.6 °F 15.6 °F 67% 30.25 in 10.0 mi WSW 13.8 mph 18.4 mph N/A   Clear
8:34 PM 25.3 °F 14.7 °F 15.3 °F 66% 30.25 in 10.0 mi West 11.5 mph - N/A   Clear
8:54 PM 25.3 °F 14.1 °F 15.4 °F 66% 30.25 in 10.0 mi WSW 12.7 mph - N/A   Clear
9:14 PM 25.2 °F 14.4 °F 15.3 °F 66% 30.25 in 10.0 mi WSW 11.5 mph - N/A   Clear
9:34 PM 25.2 °F 13.9 °F 15.4 °F 67% 30.26 in 10.0 mi West 12.7 mph - N/A   Clear
9:54 PM 25.3 °F 14.1 °F 15.4 °F 66% 30.26 in 10.0 mi West 12.7 mph - N/A   Clear
10:14 PM 25.3 °F 14.1 °F 15.4 °F 66% 30.26 in 10.0 mi West 12.7 mph 18.4 mph N/A   Clear
10:34 PM 24.6 °F 13.8 °F 15.4 °F 68% 30.26 in 10.0 mi West 11.5 mph - N/A   Clear
10:54 PM 24.1 °F 13.7 °F 14.9 °F 68% 30.27 in 10.0 mi WSW 10.4 mph - N/A   Clear
11:14 PM 23.9 °F 12.9 °F 14.9 °F 69% 30.28 in 10.0 mi WSW 11.5 mph 16.1 mph N/A   Clear
11:34 PM 24.1 °F 13.7 °F 15.3 °F 69% 30.28 in 10.0 mi West 10.4 mph - N/A   Clear
11:54 PM 23.9 °F 13.5 °F 15.3 °F 70% 30.28 in 10.0 mi West 10.4 mph - N/A   Clear